Dewpoint
13 11 12 12 11 5 3 3 3 2 2 3 4 4 6 7 8 9 10 10 10 10 10 8 7 8 8 7 7 8 7 9 6 4 5 4 4 2 2 3 7 8 7
14 11 11 12 12 4 3 3 2 1 3 3 2 4 6 10 10 10 10 10 10 9 10 9 9 8 7 7 6 7 7 8 7 5 5 5 4 3 2 2 2 2 5
11 10 8 10 8 5 4 3 3 5 5 5 5 7 9 10 10 10 9 9 9 9 9 9 9 10 9 7 7 7 8 8 8 6 5 5 4 4 3 2 2 3 2
6 7 7 5 4 5 5 4 5 4 4 7 8 9 10 10 10 10 10 9 9 9 9 9 9 9 5 3 5 5 8 8 9 7 6 5 5 5 4 3 2 2 4
7 9 4 8 5 5 5 4 5 5 6 7 9 10 10 10 10 9 9 9 9 9 9 9 9 1 -1 0 2 5 9 9 9 8 7 6 6 6 4 4 3 3 5
8 7 8 7 7 7 6 5 5 6 6 8 9 9 10 11 10 10 9 9 9 9 9 8 -1 -2 -2 -2 -1 5 10 9 10 9 7 6 6 6 5 4 4 3 3
12 10 9 10 9 6 6 5 6 5 7 8 8 9 10 11 11 10 9 10 10 9 7 0 -3 -2 -3 -3 -2 8 10 9 8 8 8 6 7 7 5 5 5 4 4
11 10 10 10 9 7 7 6 6 7 8 9 9 10 10 11 10 10 10 10 9 9 2 -1 1 -0 -1 -1 -1 8 9 8 7 7 7 8 7 6 6 6 6 5 3
11 9 9 8 8 8 8 9 9 9 9 9 8 9 10 10 10 9 9 10 9 5 3 2 5 3 2 1 1 3 7 7 7 7 7 5 7 7 5 5 5 5 6
10 8 7 7 8 9 10 10 10 10 10 10 9 9 9 9 9 9 9 9 8 6 5 4 6 5 4 2 1 2 5 8 7 6 6 6 7 7 6 5 6 5 5
10 10 10 9 10 12 11 10 10 10 9 9 10 10 10 10 9 9 8 9 8 7 6 5 7 6 4 3 2 1 2 6 6 6 6 5 6 5 5 5 4 4 4
10 10 11 11 10 10 10 10 9 9 9 9 9 8 7 8 10 9 5 6 6 5 6 7 7 5 5 4 2 2 2 2 4 5 5 5 6 4 4 4 4 3 3
9 9 9 9 9 9 8 7 7 8 9 9 9 9 9 9 11 10 8 3 4 5 7 7 6 5 4 4 2 2 2 2 2 5 5 5 5 4 4 4 4 3 3
9 9 9 10 10 9 9 9 9 9 9 8 8 9 11 11 10 10 8 6 6 7 7 5 4 3 4 3 3 3 3 2 2 3 4 4 4 4 4 2 2 2 1
9 9 9 8 8 9 10 9 8 9 9 9 9 9 8 8 9 9 9 10 7 7 6 3 3 3 3 4 4 4 3 1 2 2 3 3 3 4 3 2 1 1 0
10 10 9 8 8 10 10 9 8 9 10 9 9 8 9 9 9 9 9 9 8 6 2 2 2 2 2 3 4 4 3 2 1 1 2 2 3 2 2 1 1 1 0
10 10 10 9 9 9 9 10 9 9 9 10 10 9 9 9 9 9 8 8 4 2 2 2 2 1 2 2 3 3 3 2 1 2 2 2 2 1 1 2 1 0 -0
4 4 5 6 8 9 9 10 10 10 10 10 10 10 10 10 9 10 8 4 1 2 2 1 1 1 2 3 2 2 3 2 1 1 1 1 1 0 1 1 0 -0 -0
3 3 4 4 4 4 5 6 9 9 9 10 10 10 10 9 10 9 8 2 2 2 2 1 1 1 2 2 2 2 2 2 1 1 0 0 0 0 0 -0 -0 -0 -11
-1 -0 0 1 2 3 4 5 8 8 8 9 9 9 9 9 9 8 5 3 3 2 1 0 1 1 1 1 1 1 1 1 1 1 1 -0 -0 0 -0 -0 -1 -6 -22
-3 -3 -1 1 2 2 3 5 6 7 7 8 8 9 9 9 8 7 4 4 4 2 1 1 1 1 1 1 0 0 0 0 0 0 -0 -0 -0 -0 -0 -1 -6 -22 -24
-4 -3 -3 -2 1 2 3 3 4 6 7 6 7 8 8 7 7 5 4 4 4 2 1 2 0 1 0 -0 -0 0 0 0 0 -0 -0 -1 -0 -0 -2 -7 -22 -24 -26
-3 -3 -2 -2 -1 1 3 3 4 4 5 6 6 5 5 5 4 4 4 4 3 4 4 1 -0 -0 -0 -1 0 1 -0 -1 -0 -0 -1 -1 -2 -13 -19 -22 -24 -25 -24
-3 -3 -2 -1 -1 0 2 3 3 3 3 3 3 4 4 4 4 3 2 1 1 1 0 -0 -0 -0 -0 -0 0 -0 -1 0 0 -0 -1 -1 -4 -13 -21 -23 -24 -25 -24
-3 -3 -3 -2 -1 -0 1 2 3 3 3 3 2 2 2 2 2 2 2 1 1 0 -0 -0 -0 -0 -1 -2 -3 -1 -0 -0 -0 -1 -1 -3 -8 -19 -22 -23 -23 -24 -22
-2 -1 -1 -1 1 1 1 1 1 2 3 3 2 2 2 2 1 1 1 1 0 -0 -0 -0 -1 -1 -1 -2 -4 -1 -1 -0 -1 -1 -3 -4 -13 -21 -23 -22 -22 -21 -20
Wind_Speed
31 31 32 29 28 27 25 21 17 15 13 11 12 10 8 8 7 5 2 2 3 3 7 5 3 5 9 10 9 10 10 8 6 4 5 7 11 12 12 11 11 11 12
31 29 35 33 31 27 24 21 18 15 13 11 12 10 9 10 9 7 5 3 5 7 7 8 6 6 10 12 11 11 11 9 7 7 6 7 10 12 14 14 13 13 14
30 34 36 36 31 25 24 21 19 17 15 12 12 12 12 11 9 6 5 8 8 10 10 11 11 13 15 15 14 13 12 10 9 8 8 9 9 12 14 15 15 14 14
27 31 32 32 27 26 25 22 20 18 15 15 13 14 13 11 10 10 11 11 11 14 13 13 16 18 17 15 12 11 12 10 10 11 10 10 11 13 14 16 16 15 13
26 25 28 30 29 28 26 23 20 18 18 17 16 15 14 11 12 13 12 15 13 16 16 16 20 16 12 11 10 8 13 11 11 11 11 11 12 14 15 17 16 15 11
32 32 31 28 30 29 26 23 22 21 20 18 17 16 16 15 16 17 16 16 16 18 19 21 16 11 10 9 8 7 14 12 12 12 13 13 14 16 15 16 17 14 12
29 26 29 29 28 27 26 24 23 22 21 17 18 18 17 17 18 19 20 20 20 20 18 16 13 11 9 9 9 10 14 12 13 16 15 16 13 15 15 16 16 13 15
30 31 33 31 29 28 26 24 25 23 21 20 20 20 20 21 21 21 23 21 19 19 15 11 10 10 10 11 9 10 14 15 16 15 17 14 14 15 17 16 16 17 17
31 32 33 32 30 27 26 25 24 24 24 23 25 21 10 13 21 25 24 22 19 17 14 9 8 12 12 12 10 11 14 17 17 16 15 17 17 16 18 16 18 17 17
32 33 31 30 30 28 25 23 24 25 25 24 25 29 28 16 12 12 25 24 20 18 15 11 14 15 15 15 14 14 15 17 16 16 17 16 15 16 14 20 19 18 17
30 31 30 29 28 27 27 24 24 22 22 22 27 27 27 29 26 21 22 25 22 17 17 15 19 17 18 16 14 14 15 16 17 16 15 16 18 20 22 21 22 22 20
25 27 29 27 25 23 23 21 21 22 24 27 23 28 30 32 35 29 20 20 22 18 19 22 21 21 19 17 16 15 14 16 16 16 15 18 21 22 21 22 22 22 24
20 21 24 23 21 24 25 28 27 32 28 27 28 32 34 35 37 31 22 19 18 18 20 24 22 22 21 18 17 15 13 15 16 13 14 20 21 22 23 23 22 23 24
21 30 25 20 20 24 27 27 28 28 29 28 30 31 28 29 29 31 22 25 22 21 22 23 21 23 22 19 17 15 14 14 14 12 16 20 22 23 20 20 23 24 24
19 22 25 26 25 25 26 27 27 34 36 32 31 24 27 22 24 22 24 27 26 22 21 23 24 23 21 20 18 15 16 15 16 16 17 19 21 21 20 20 22 25 22
20 24 24 26 25 23 28 27 26 29 31 25 29 29 29 28 27 27 28 27 26 23 23 19 19 20 19 18 17 17 18 17 16 16 16 18 20 18 18 19 22 22 24
10 14 20 27 29 29 30 34 32 33 35 29 34 33 33 29 27 25 25 25 24 23 24 23 22 21 20 19 18 20 20 18 16 14 13 16 17 17 19 19 20 22 26
9 11 13 17 20 23 24 24 25 29 31 36 40 39 40 35 33 29 27 26 24 24 23 23 22 22 23 22 22 18 18 19 17 14 16 18 18 19 19 20 20 23 21
8 10 12 14 15 17 20 22 25 27 28 29 32 36 41 38 30 32 29 26 24 25 23 24 23 22 22 22 21 19 20 18 17 16 18 19 19 18 19 20 21 22 18
10 11 14 16 17 18 19 18 20 24 27 28 30 31 34 33 29 31 27 25 26 25 25 25 24 24 23 21 22 22 21 18 17 18 18 17 18 18 18 18 20 18 16
10 11 13 15 16 16 17 18 20 21 24 26 27 28 29 30 32 34 27 27 26 27 25 25 25 26 26 24 23 18 18 16 17 17 17 18 17 16 18 19 16 15 13
12 13 15 17 18 19 18 19 20 22 23 26 27 27 29 29 29 27 27 28 26 25 27 25 27 30 28 25 24 19 17 16 17 16 18 18 18 17 17 16 14 12 11
18 18 18 17 18 20 20 21 22 24 24 24 24 24 25 26 26 27 29 30 29 30 31 31 32 29 27 22 19 20 19 16 16 17 14 16 15 13 12 13 12 9 7
18 21 22 22 22 22 22 23 23 24 25 25 25 26 27 27 27 27 28 29 29 29 28 30 28 23 21 18 20 18 15 15 18 17 18 18 15 12 11 12 10 8 7
19 21 23 25 26 26 25 25 25 27 27 27 25 26 27 28 27 27 29 30 29 31 29 29 26 24 21 18 18 20 21 21 21 20 20 16 15 11 11 12 10 8 6
22 21 21 20 22 24 23 23 21 27 30 30 29 28 29 29 28 28 31 32 32 30 29 28 26 24 23 21 21 20 19 22 22 18 20 19 16 11 8 13 11 8 7
Wind_Direction
207 204 192 196 197 194 189 189 193 200 204 206 208 208 198 192 193 201 211 338 304 285 346 334 299 287 290 303 303 303 306 299 297 299 327 344 350 350 347 335 318 312 301
208 212 198 199 202 192 191 195 201 203 208 219 220 216 205 191 212 225 243 259 275 279 295 308 300 308 296 294 294 297 300 289 272 276 300 330 349 353 347 338 327 310 299
210 215 206 204 204 196 196 198 202 205 208 212 211 211 201 209 217 225 240 252 257 259 272 283 294 303 300 290 284 287 285 277 262 269 288 312 331 339 343 338 334 321 309
204 208 206 211 202 201 200 202 206 213 213 218 212 207 215 216 221 238 242 247 245 254 267 278 293 301 299 290 285 276 272 271 262 265 278 296 314 328 333 332 333 328 327
196 204 209 217 201 200 203 206 211 215 219 219 221 218 226 209 207 227 237 253 246 265 274 283 291 291 283 285 287 267 258 266 263 269 282 293 309 320 326 329 334 335 325
196 202 207 208 201 204 207 211 217 220 222 225 228 228 216 223 226 233 244 242 255 262 279 288 281 270 276 285 290 258 244 258 271 273 277 289 305 309 316 324 324 325 327
203 210 207 207 209 210 214 215 218 219 219 217 219 223 220 229 228 237 244 247 259 265 271 273 266 274 281 293 292 228 235 263 277 271 275 285 292 303 306 317 312 312 323
208 211 212 213 216 215 215 215 215 217 219 217 218 221 231 233 233 238 246 254 256 261 258 253 278 284 297 306 297 241 253 262 274 283 281 283 291 294 302 301 302 305 309
212 218 216 215 215 215 215 216 217 219 221 220 221 228 215 226 233 239 243 242 250 254 247 239 286 291 295 298 289 264 252 255 262 270 272 289 289 287 294 298 303 303 309
215 220 216 217 217 218 219 220 223 224 221 224 227 230 238 244 226 227 228 232 234 239 252 259 287 289 291 297 294 282 268 263 264 266 272 279 278 279 288 300 295 303 302
212 211 210 211 216 223 225 227 234 240 247 257 248 247 247 253 238 242 232 223 222 236 253 267 277 280 283 289 289 283 272 261 265 265 268 279 278 276 287 288 294 294 297
218 223 221 219 220 228 232 233 242 249 246 249 253 262 261 256 248 227 220 220 223 237 251 266 266 272 278 285 292 287 280 272 265 263 266 266 263 277 280 289 293 294 298
216 222 225 227 229 230 240 250 258 251 242 251 250 255 256 253 243 231 233 230 236 227 258 259 259 267 275 281 284 287 284 272 268 255 255 259 266 272 284 289 293 295 297
235 229 237 238 232 254 252 242 238 247 253 257 261 254 247 242 248 247 227 242 244 252 256 250 260 265 268 271 274 281 283 286 281 268 254 264 271 276 279 292 297 299 298
241 238 247 252 255 256 238 245 253 260 258 258 259 249 250 242 244 238 238 246 248 253 247 254 259 264 263 262 262 264 270 277 274 267 262 265 270 273 280 285 295 295 300
255 244 246 244 260 267 243 244 257 264 258 257 247 251 256 256 252 248 245 243 249 246 246 259 258 259 261 262 263 266 276 283 276 268 262 266 270 276 282 287 286 295 304
265 256 252 255 260 260 254 260 263 265 264 261 246 248 252 255 256 254 246 245 242 243 249 254 258 259 256 257 260 273 277 281 277 259 265 268 270 281 284 283 290 300 307
274 275 269 262 257 257 257 262 264 264 266 263 258 254 250 255 251 252 248 242 243 250 255 256 258 255 255 259 265 270 268 280 278 271 270 274 273 277 281 287 296 303 299
282 275 268 265 263 262 261 258 257 257 257 263 270 259 255 259 249 258 243 245 243 250 252 254 254 253 255 261 268 265 267 269 266 264 265 269 273 278 282 286 296 296 298
288 288 289 288 287 286 282 275 264 262 259 257 259 261 256 260 256 247 242 243 251 248 252 252 251 252 252 257 263 266 267 265 266 263 264 268 273 278 281 283 291 292 294
302 294 290 288 287 286 286 284 278 270 266 266 263 264 260 258 257 255 242 244 251 250 250 249 250 251 253 255 261 263 262 257 256 261 264 266 266 271 274 284 284 286 288
312 309 299 291 289 289 287 283 280 276 272 268 267 264 261 256 253 250 252 251 250 252 249 260 263 257 259 261 259 246 241 244 255 255 257 257 259 262 272 275 275 281 293
302 298 295 296 293 288 284 283 283 282 279 276 273 267 261 259 254 254 251 253 250 251 253 254 256 255 259 262 245 237 232 232 245 247 251 253 253 261 260 264 272 278 283
296 293 291 292 292 290 283 277 278 278 278 275 272 269 264 259 256 255 256 253 253 253 255 257 258 257 260 247 238 237 230 227 232 241 245 258 249 251 253 256 260 263 268
305 299 298 296 294 287 285 282 278 277 275 275 274 272 266 262 258 256 253 255 254 252 251 251 252 252 248 237 235 220 214 220 226 234 244 251 249 247 239 241 240 240 250
314 310 305 303 302 298 296 299 298 285 278 274 272 270 268 264 257 257 255 255 253 254 253 249 250 250 239 232 228 227 222 223 225 236 243 241 241 241 235 231 226 226 228
Height
1526 1530 1534 1536 1538 1541 1544 1546 1548 1550 1552 1553 1553 1554 1554 1553 1553 1555 1556 1556 1556 1556 1555 1554 1554 1554 1553 1552 1551 1550 1549 1548 1548 1546 1545 1544 1542 1540 1539 1537 1536 1535 1534
1522 1527 1530 1533 1537 1539 1542 1544 1546 1548 1550 1551 1551 1552 1553 1553 1554 1554 1554 1554 1555 1555 1555 1554 1553 1552 1551 1550 1549 1548 1547 1547 1546 1545 1544 1544 1543 1541 1539 1537 1535 1534 1533
1516 1523 1527 1531 1534 1538 1541 1543 1544 1546 1547 1549 1549 1551 1551 1552 1553 1553 1553 1554 1554 1554 1553 1552 1551 1551 1549 1548 1547 1546 1545 1544 1544 1544 1544 1543 1542 1540 1538 1536 1534 1532 1530
1514 1519 1524 1529 1532 1537 1539 1541 1542 1544 1545 1546 1548 1548 1549 1550 1550 1550 1551 1552 1552 1552 1550 1549 1549 1548 1547 1546 1544 1544 1543 1544 1543 1542 1542 1541 1541 1539 1538 1535 1533 1530 1528
1511 1517 1522 1529 1530 1534 1536 1538 1540 1541 1542 1544 1545 1546 1547 1547 1548 1547 1547 1549 1548 1550 1549 1546 1546 1545 1543 1542 1542 1542 1542 1542 1542 1542 1542 1540 1539 1538 1536 1534 1531 1530 1527
1508 1514 1518 1527 1528 1531 1532 1534 1536 1538 1540 1542 1543 1544 1545 1545 1545 1544 1545 1544 1545 1546 1545 1544 1543 1541 1541 1540 1540 1540 1540 1540 1540 1539 1538 1537 1537 1536 1535 1533 1530 1527 1526
1507 1512 1517 1524 1527 1527 1529 1532 1534 1535 1537 1540 1541 1542 1542 1542 1541 1541 1542 1540 1541 1541 1540 1541 1541 1540 1537 1538 1537 1538 1537 1537 1538 1537 1535 1535 1534 1534 1532 1530 1529 1526 1522
1504 1511 1516 1520 1522 1525 1527 1529 1531 1532 1535 1537 1538 1539 1539 1541 1539 1537 1539 1538 1537 1538 1538 1537 1537 1536 1535 1534 1534 1535 1536 1534 1534 1534 1533 1532 1531 1531 1530 1528 1525 1523 1521
1503 1508 1512 1515 1517 1521 1523 1526 1528 1529 1531 1533 1534 1535 1535 1534 1533 1535 1535 1534 1534 1535 1536 1531 1533 1533 1532 1530 1530 1531 1531 1531 1530 1530 1529 1529 1528 1527 1526 1525 1524 1522 1521
1502 1505 1507 1511 1514 1517 1520 1523 1526 1527 1528 1529 1530 1530 1529 1530 1530 1530 1530 1529 1530 1531 1533 1529 1530 1530 1529 1528 1527 1527 1528 1528 1528 1527 1527 1525 1524 1524 1524 1522 1521 1521 1518
1497 1500 1503 1506 1509 1513 1517 1520 1523 1524 1525 1525 1527 1526 1526 1527 1525 1525 1524 1522 1525 1527 1528 1525 1527 1526 1525 1524 1524 1523 1523 1524 1523 1524 1525 1523 1521 1520 1519 1519 1517 1516 1513
1493 1497 1501 1503 1507 1511 1513 1515 1518 1518 1519 1520 1520 1521 1519 1518 1518 1520 1517 1518 1520 1520 1522 1522 1521 1521 1520 1520 1519 1518 1518 1518 1519 1519 1520 1519 1517 1517 1515 1513 1512 1510 1510
1492 1495 1498 1501 1503 1507 1508 1511 1510 1514 1512 1513 1514 1513 1513 1509 1511 1512 1512 1516 1516 1514 1516 1517 1516 1516 1515 1515 1514 1514 1513 1514 1514 1514 1514 1514 1513 1513 1510 1508 1506 1505 1503
1490 1494 1496 1498 1500 1503 1504 1504 1505 1505 1506 1505 1504 1506 1506 1504 1504 1503 1504 1511 1511 1510 1510 1513 1512 1511 1511 1511 1510 1509 1510 1510 1510 1512 1510 1508 1510 1509 1507 1505 1504 1503 1499
1486 1489 1491 1493 1494 1495 1496 1498 1497 1498 1498 1497 1497 1498 1500 1501 1501 1500 1500 1503 1505 1504 1505 1507 1507 1506 1506 1506 1506 1505 1506 1505 1504 1505 1505 1505 1506 1504 1502 1499 1498 1499 1495
1482 1485 1487 1489 1490 1490 1490 1490 1489 1490 1491 1490 1492 1493 1494 1494 1494 1494 1494 1496 1497 1499 1500 1501 1501 1501 1501 1501 1502 1501 1501 1501 1500 1500 1501 1500 1500 1498 1498 1496 1495 1494 1492
1479 1480 1482 1484 1483 1484 1485 1485 1483 1483 1484 1485 1486 1487 1487 1487 1487 1487 1489 1489 1491 1493 1494 1495 1496 1497 1497 1495 1495 1497 1498 1497 1495 1495 1495 1496 1495 1494 1492 1491 1489 1488 1487
1478 1478 1479 1478 1477 1478 1478 1479 1477 1478 1477 1478 1479 1479 1478 1477 1478 1480 1482 1482 1484 1489 1491 1491 1490 1490 1492 1491 1490 1490 1494 1492 1494 1492 1494 1494 1492 1490 1489 1487 1486 1486 1481
1475 1476 1474 1474 1473 1472 1472 1470 1471 1471 1471 1470 1471 1471 1469 1471 1470 1472 1472 1476 1478 1481 1483 1483 1485 1485 1486 1486 1486 1485 1486 1486 1487 1487 1487 1489 1487 1486 1485 1484 1484 1483 1479
1473 1473 1472 1471 1470 1469 1467 1465 1466 1465 1464 1462 1463 1465 1465 1465 1464 1465 1464 1469 1473 1473 1476 1479 1478 1478 1479 1477 1480 1481 1482 1484 1484 1485 1485 1482 1483 1483 1484 1480 1480 1478 1477
1468 1466 1466 1467 1465 1461 1462 1461 1461 1460 1460 1457 1456 1456 1457 1458 1457 1457 1456 1461 1465 1466 1468 1471 1471 1472 1472 1469 1470 1473 1476 1477 1477 1479 1481 1480 1479 1479 1480 1479 1476 1475 1474
1463 1461 1460 1460 1460 1458 1457 1455 1455 1453 1453 1451 1450 1449 1451 1449 1451 1451 1453 1456 1457 1459 1462 1463 1464 1466 1464 1463 1464 1465 1466 1469 1473 1472 1477 1477 1477 1473 1474 1476 1473 1472 1471
1460 1459 1458 1453 1450 1453 1451 1451 1450 1447 1447 1445 1443 1444 1444 1444 1445 1446 1447 1449 1451 1451 1453 1456 1457 1455 1456 1456 1458 1459 1460 1461 1466 1470 1468 1471 1471 1471 1470 1472 1471 1471 1470
1455 1455 1450 1446 1442 1445 1447 1446 1444 1440 1439 1438 1437 1439 1438 1438 1437 1440 1443 1443 1445 1446 1447 1450 1452 1452 1452 1448 1451 1454 1458 1458 1460 1465 1466 1466 1465 1466 1466 1469 1468 1470 1470
1452 1448 1445 1441 1439 1439 1440 1440 1436 1434 1432 1432 1431 1431 1431 1431 1433 1433 1434 1436 1439 1439 1442 1441 1440 1445 1446 1445 1447 1449 1448 1454 1456 1457 1464 1462 1464 1462 1463 1466 1466 1468 1468
1444 1441 1436 1435 1434 1432 1432 1433 1427 1426 1424 1422 1424 1423 1425 1423 1424 1427 1426 1431 1430 1432 1435 1435 1436 1438 1440 1440 1441 1446 1446 1449 1451 1453 1458 1458 1458 1462 1461 1463 1464 1465 1466